Location: Newark
(47.5833°N, 8.1500°E)
Time: 18:42:54
(UTC+00:00)

Transit 2A - Pass Details

Date: 27 October 2020
Orbit: 595 x 964 km, 66.7° (Epoch: 01 December)

Event Time Altitude Azimuth Distance (km) Brightness Sun altitude
Rises 07:26:11 0° 326° (NW) 3,547 8.9 11.5°
Reaches altitude 10° 07:29:23 10° 341° (NNW) 2,547 8.3 11.9°
Maximum altitude 07:33:56 23° 31° (NNE) 1,727 7.9 12.6°
Drops below altitude 10° 07:38:10 10° 83° (E) 2,347 9.4 13.1°
Sets 07:40:58 0° 98° (E) 3,202 10.4 13.5°
